Hourly Data Report for September 11, 2017

All times are specified in Local Standard Time (LST). Add 1 hour to adjust for Daylight Saving Time where and when it is observed.

EUREKA CLIMATE
NUNAVUT

79°59'21.000" N
85°56'02.000" W
10.00 m
2401199
71613
NEK

Download Data

Hourly Data (September 2017)
Hourly Data Report for September 11, 2017
Temp Definition
°C
Dew Point Temp Definition
°C
Rel Hum Definition
%
Wind Dir Definition
10's deg

Wind Spd Definition
km/h
Visibility Definition
km
Stn Press Definition
kPa
Hmdx Definition


Wind Chill Definition


Weather Definition


TIME
00:00 -5.5 -6.9 90 14 10   99.94   -10 LegendNANA
01:00 -5.3 -6.9 88 13 13   100.00   -10 LegendNANA
02:00 -5.3 -7.0 88 13 14   100.04   -11 LegendNANA
03:00 -5.5 -7.3 87 12 18   100.08   -12 LegendNANA
04:00 -5.4 -7.1 88 12 16   100.11   -11 LegendNANA
05:00 -5.5 -6.9 90 13 13   100.13   -11 LegendNANA
06:00 -5.2 -6.8 89 12 14   100.15   -11 LegendNANA
07:00 -4.8 -6.7 87 12 15   100.19   -10 LegendNANA
08:00 -4.7 -6.6 87 11 14   100.21   -10 LegendNANA
09:00 -4.6 -6.5 86 13 15   100.25   -10 LegendNANA
10:00 -4.6 -6.1 89 13 16   100.29   -10 LegendNANA
11:00 -4.5 -5.9 90 13 15   100.31   -10 LegendNANA
12:00 -4.3 -5.3 93 13 16   100.34   -10 LegendNANA
13:00 -4.0 -5.5 90 14 15   100.38   -9 LegendNANA
14:00 -4.0 -5.4 90 15 17   100.44   -10 LegendNANA
15:00 -4.1 -4.7 96 14 19   100.48   -10 LegendNANA
16:00 -4.1 -4.5 97 12 18   100.53   -10 LegendNANA
17:00 -3.7 -4.5 94 12 19   100.57   -10 LegendNANA
18:00 -3.5 -4.1 96 12 15   100.61   -9 LegendNANA
19:00 -3.3 -4.3 92 13 17   100.64   -9 LegendNANA
20:00 -3.1 -4.6 90 13 17   100.68   -9 LegendNANA
21:00 -3.2 -4.4 92 12 15   100.70   -8 LegendNANA
22:00 -3.0 -4.1 92 13 15   100.73   -8 LegendNANA
23:00 -3.0 -3.9 93 13 17   100.74   -9 LegendNANA

Notes on Data Quality.

Legend

  • E = Estimated
  • M = Missing
  • NA = Not Available
  • ‡ = Partner data that is not subject to review by the National Climate Archives
Date modified: